Weather History for Prague, Czech Republic

Change the Weather History Date:

Sunday, March 10, 2013

  Actual Average Record
Temperature  
Mean Temperature 46 °F -  
Max Temperature 54 °F 49 °F 59 °F (2003)
Min Temperature 37 °F 32 °F 14 °F (2005)
Degree Days  
Heating Degree Days 20    
Moisture  
Dew Point 40 °F    
Average Humidity 90    
Maximum Humidity 100    
Minimum Humidity 54    
Precipitation  
Precipitation 0.00 in 0.04 in - ()
Sea Level Pressure  
Sea Level Pressure 29.47 in    
Wind  
Wind Speed 4 mph ()    
Max Wind Speed 14 mph    
Max Gust Speed -    
Visibility 3.4 miles    
Events Fog , Rain    
Averages and records for this station are not official NWS values.
T = Trace of Precipitation, MM = Missing Value Source: Averaged Metar Reports

Daily Weather History Graph

Daily Weather History Graph

Search for Another Location

Airport:

Trip Planner

Search our weather history database for the weather conditions in past years. The results will help you decide how hot, cold, wet, or windy it might be!

Date:

Astronomy

Mar. 10, 2013 Rise Set
Actual Time 6:27 AM CET 5:59 PM CET
Civil Twilight 5:55 AM CET 6:32 PM CET
Nautical Twilight 5:17 AM CET 7:09 PM CET
Astronomical Twilight 4:39 AM CET 7:48 PM CET
Moon 5:23 AM CET (3/10) 4:46 PM CET (3/10)
Length of Visible Light 12h 37m
Length of Day
11h 32m
Waning Crescent, 2% of the Moon is Illuminated
Mar 10
Waning Crescent
Mar 11
New
Mar 19
First Quarter
Mar 27
Full
Apr 3
Last Quarter

Hourly Weather History & Observations

Time (CET) Temp. Windchill Dew Point Humidity Pressure Visibility Wind Dir Wind Speed Gust Speed Precip Events Conditions
12:00 AM 39.2 °F - 39.2 °F 100% 29.56 in 0.2 mi Variable 1.2 mph - N/A Fog Fog
12:30 AM 39.2 °F - 39.2 °F 100% 29.56 in 0.2 mi Variable 1.2 mph - N/A Fog Fog
1:00 AM 39 °F - 39 °F 99% 29.60 in 0 mi Calm Calm - - Fog Heavy Fog
1:00 AM 39.2 °F - 39.2 °F 100% 29.56 in 0.2 mi Calm Calm - N/A Fog Fog
1:30 AM 39.2 °F - 39.2 °F 100% 29.56 in 0.2 mi Variable 1.2 mph - N/A Fog Fog
2:00 AM 39.2 °F - 39.2 °F 100% 29.53 in 0.3 mi Variable 1.2 mph - N/A Fog Fog
2:30 AM 39.2 °F - 39.2 °F 100% 29.53 in 0.2 mi Variable 1.2 mph - N/A Fog Fog
3:00 AM 39.2 °F - 39.2 °F 100% 29.53 in 0.4 mi North 1.2 mph - N/A Fog Fog
3:30 AM 39.2 °F - 39.2 °F 100% 29.53 in 0.4 mi Calm Calm - N/A Fog Fog
4:00 AM 39.2 °F - 39.2 °F 100% 29.53 in 0.4 mi East 1.2 mph - N/A Fog Fog
4:30 AM 39.2 °F 37.0 °F 39.2 °F 100% 29.50 in 0.4 mi SE 3.5 mph - N/A Fog Fog
4:45 AM 39.2 °F 35.9 °F 39.2 °F 100% 29.53 in 0.5 mi South 4.6 mph - N/A Fog Fog
5:00 AM 39.2 °F 35.9 °F 39.2 °F 100% 29.53 in 0.4 mi South 4.6 mph - N/A Fog Fog
5:30 AM 39.2 °F 35.9 °F 39.2 °F 100% 29.50 in 0.4 mi SSE 4.6 mph - N/A Fog Fog
6:00 AM 39.2 °F 35.0 °F 39.2 °F 100% 29.50 in 0.4 mi SSE 5.8 mph - N/A Fog Fog
6:30 AM 39.2 °F 35.9 °F 39.2 °F 100% 29.47 in 0.3 mi South 4.6 mph - N/A Fog Fog
7:00 AM 38 °F - 38 °F 100% 29.54 in 0 mi South 2.2 mph - - Fog Partial Fog
7:00 AM 39.2 °F 37.0 °F 37.4 °F 93% 29.47 in 0.4 mi SSE 3.5 mph - N/A Fog Fog
7:07 AM 37.4 °F - 37.4 °F 100% 29.50 in 0.4 mi Variable 2.3 mph - N/A Fog Fog
7:17 AM 37.4 °F - 37.4 °F 100% 29.47 in 0.5 mi Variable 1.2 mph - N/A Fog Fog
7:30 AM 39.2 °F - 37.4 °F 93% 29.50 in 0.4 mi Variable 2.3 mph - N/A Fog Fog
7:51 AM 39.2 °F - 39.2 °F 100% 29.50 in 0.2 mi Variable 2.3 mph - N/A Fog Fog
8:00 AM 39.2 °F 37.0 °F 39.2 °F 100% 29.50 in 0.2 mi West 3.5 mph - N/A Fog Fog
8:16 AM 41.0 °F - 39.2 °F 93% 29.50 in 0.3 mi Variable 2.3 mph - N/A Fog Fog
8:30 AM 41.0 °F 38.0 °F 41.0 °F 100% 29.50 in 1.2 mi WSW 4.6 mph - N/A Fog Overcast
9:00 AM 41.0 °F 35.8 °F 41.0 °F 100% 29.47 in 1.6 mi WSW 8.1 mph - N/A   Overcast
9:30 AM 41.0 °F 34.7 °F 41.0 °F 100% 29.47 in - SW 10.4 mph - N/A   Overcast
9:42 AM 42.8 °F 37.5 °F 42.8 °F 100% 29.47 in 2.8 mi SW 9.2 mph - N/A   Overcast
9:49 AM 42.8 °F 37.5 °F 42.8 °F 100% 29.47 in 3.1 mi SW 9.2 mph - N/A   Mostly Cloudy
10:00 AM 42.8 °F 37.5 °F 42.8 °F 100% 29.47 in 3.1 mi SW 9.2 mph - N/A   Mostly Cloudy
10:18 AM 44.6 °F 39.2 °F 44.6 °F 100% 29.47 in 4.3 mi WSW 10.4 mph - N/A   Mostly Cloudy
10:30 AM 46.4 °F 41.9 °F 44.6 °F 93% 29.47 in 4.3 mi WSW 9.2 mph - N/A   Mostly Cloudy
10:47 AM 46.4 °F 41.5 °F 44.6 °F 93% 29.47 in 6.2 mi SSW 10.4 mph - N/A   Mostly Cloudy
11:00 AM 46.4 °F 41.5 °F 46.4 °F 100% 29.47 in 6.2 mi SSW 10.4 mph - N/A   Mostly Cloudy
11:18 AM 48.2 °F - 44.6 °F 87% 29.47 in 6.2 mi SSW 10.4 mph - N/A   Scattered Clouds
11:30 AM 48.2 °F - 44.6 °F 87% 29.47 in 6.2 mi SSW 9.2 mph - N/A   Scattered Clouds
12:00 PM 48.2 °F - 41.0 °F 76% 29.47 in 6.2 mi WSW 12.7 mph - N/A   Scattered Clouds
12:30 PM 50.0 °F - 42.8 °F 76% 29.47 in 6.2 mi SW 10.4 mph - N/A   Scattered Clouds
1:00 PM 51 °F - 43 °F 65% 29.48 in 12 mi SW 11.2 mph - -   Partly Cloudy
1:00 PM 51.8 °F - 42.8 °F 71% 29.47 in 6.2 mi SW 10.4 mph - N/A   Mostly Cloudy
1:30 PM 51.8 °F - 41.0 °F 67% 29.44 in 6.2 mi NW 8.1 mph - N/A   Mostly Cloudy
2:00 PM 50.0 °F - 42.8 °F 76% 29.44 in 6.2 mi North 3.5 mph - N/A   Scattered Clouds
2:30 PM 50.0 °F - 42.8 °F 76% 29.44 in 6.2 mi Calm Calm - N/A   Scattered Clouds
3:00 PM 51.8 °F - 37.4 °F 58% 29.44 in 6.2 mi WSW 9.2 mph - N/A   Scattered Clouds
3:30 PM 53.6 °F - 37.4 °F 54% 29.44 in 6.2 mi WSW 9.2 mph - N/A   Scattered Clouds
4:00 PM 53.6 °F - 37.4 °F 54% 29.44 in 6.2 mi SW 10.4 mph - N/A   Scattered Clouds
4:30 PM 51.8 °F - 39.2 °F 62% 29.42 in 6.2 mi West 5.8 mph - N/A   Scattered Clouds
5:00 PM 51.8 °F - 37.4 °F 58% 29.42 in 6.2 mi West 8.1 mph - N/A   Partly Cloudy
5:30 PM 50.0 °F - 39.2 °F 66% 29.42 in 6.2 mi North 5.8 mph - N/A   Partly Cloudy
6:00 PM 46.4 °F 42.4 °F 39.2 °F 76% 29.42 in 6.2 mi NE 8.1 mph - N/A   Partly Cloudy
6:30 PM 44.6 °F 40.2 °F 39.2 °F 81% 29.42 in 6.2 mi ENE 8.1 mph - N/A   Partly Cloudy
7:00 PM 43 °F - 41 °F 89% 29.47 in 5 mi East 8.9 mph - -   Mist
7:00 PM 42.8 °F 37.5 °F 41.0 °F 93% 29.42 in 5.0 mi East 9.2 mph - N/A   Unknown
7:30 PM 44.6 °F 39.7 °F 42.8 °F 93% 29.42 in 3.1 mi East 9.2 mph - N/A   Mist
8:00 PM 44.6 °F 40.7 °F 42.8 °F 93% 29.42 in 3.1 mi East 6.9 mph - N/A   Mist
8:30 PM 42.8 °F - 41.0 °F 93% 29.42 in 3.1 mi Variable 2.3 mph - N/A   Partly Cloudy
9:00 PM 42.8 °F 40.1 °F 42.8 °F 100% 29.42 in 3.1 mi South 4.6 mph - N/A   Scattered Clouds
9:20 PM 44.6 °F 40.2 °F 41.0 °F 87% 29.42 in 4.3 mi South 8.1 mph - N/A Rain Light Rain
9:30 PM 44.6 °F 40.2 °F 41.0 °F 87% 29.42 in 6.2 mi South 8.1 mph - N/A Rain Light Rain
10:00 PM 44.6 °F 38.1 °F 39.2 °F 81% 29.42 in 6.2 mi WSW 13.8 mph - N/A Rain Light Rain
10:30 PM 42.8 °F 37.5 °F 41.0 °F 93% 29.42 in 6.2 mi SW 9.2 mph - N/A Rain Light Rain
11:00 PM 44.6 °F 38.1 °F 41.0 °F 87% 29.42 in 6.2 mi SW 13.8 mph - N/A Rain Light Rain
11:30 PM 42.8 °F 35.8 °F 41.0 °F 93% 29.42 in 6.2 mi SW 13.8 mph - N/A Rain Light Rain